Location: Unspecified
(47.5840°N, 122.3000°W)
Time: 18:54:41
(UTC+00:00)

IRIDIUM 114 - Pass Details

Date: 22 March 2026
Orbit: 776 x 779 km, 86.4° (Epoch: 14 April)

Event Time Altitude Azimuth Distance (km) Brightness Sun altitude
Exits shadow 05:19:59 26° 223° (SW) 1,509 5.8 -28.5°
Maximum altitude 05:22:31 44° 280° (W) 1,074 5.3 -28.8°
Drops below altitude 10° 05:27:31 10° 352° (N) 2,341 7.3 -29.5°
Sets 05:30:00 0° 359° (N) 3,273 8.1 -29.8°
